Weather History for Winslow, AZ

Change the Weather History Date:

Friday, May 17, 2013

  Actual Average Record
Temperature  
Mean Temperature 65 °F 64 °F  
Max Temperature 84 °F 82 °F 93 °F (1970)
Min Temperature 46 °F 46 °F 30 °F (1983)
Degree Days  
Heating Degree Days 0 3  
Month to date heating degree days 68 79  
Since 1 July heating degree days 4177 4458  
Cooling Degree Days 0 2  
Month to date cooling degree days 18 22  
Year to date cooling degree days 25 26  
Growing Degree Days 15 (Base 50)    
Moisture  
Dew Point 18 °F    
Average Humidity 19    
Maximum Humidity 29    
Minimum Humidity 9    
Precipitation  
Precipitation 0.00 in 0.01 in 0.20 in (1935)
Month to date precipitation T 0.18  
Year to date precipitation 1.79 1.96  
Sea Level Pressure  
Sea Level Pressure 29.82 in    
Wind  
Wind Speed 12 mph (SSW)    
Max Wind Speed 30 mph    
Max Gust Speed 39 mph    
Visibility 10 miles    
Events      
T = Trace of Precipitation, MM = Missing Value Source: NWS Daily Summary

Daily Weather History Graph

Daily Weather History Graph

Search for Another Location

Airport:

Trip Planner

Search our weather history database for the weather conditions in past years. The results will help you decide how hot, cold, wet, or windy it might be!

Date:

Astronomy

May. 17, 2013 Rise Set
Actual Time 5:17 AM MST 7:21 PM MST
Civil Twilight 4:49 AM MST 7:49 PM MST
Nautical Twilight 4:14 AM MST 8:24 PM MST
Astronomical Twilight 3:37 AM MST 9:01 PM MST
Moon 11:46 AM MST (5/17) 12:21 AM MST (5/17)
Length of Visible Light 15h 00m
Length of Day
14h 03m
Waxing Crescent, 46% of the Moon is Illuminated
May 17
Waxing Crescent
May 17
First Quarter
May 24
Full
May 31
Last Quarter
Jun 8
New

Hourly Weather History & Observations

Time (MST) Temp. Dew Point Humidity Pressure Visibility Wind Dir Wind Speed Gust Speed Precip Events Conditions
12:56 AM 54.0 °F 18.0 °F 24% 29.81 in 10.0 mi SSW 4.6 mph - N/A   Clear
1:56 AM 53.1 °F 18.0 °F 25% 29.80 in 10.0 mi SE 6.9 mph - N/A   Clear
2:56 AM 48.9 °F 17.1 °F 28% 29.81 in 10.0 mi SE 3.5 mph - N/A   Clear
3:56 AM 50.0 °F 18.0 °F 28% 29.81 in 10.0 mi SE 8.1 mph - N/A   Clear
4:56 AM 48.0 °F 18.0 °F 30% 29.83 in 10.0 mi Calm Calm - N/A   Clear
5:56 AM 48.9 °F 18.0 °F 29% 29.85 in 10.0 mi Calm Calm - N/A   Clear
6:56 AM 55.0 °F 19.0 °F 24% 29.85 in 10.0 mi ESE 12.7 mph - N/A   Clear
7:56 AM 66.0 °F 16.0 °F 15% 29.84 in 10.0 mi SE 9.2 mph - N/A   Clear
8:56 AM 71.1 °F 12.9 °F 11% 29.83 in 10.0 mi Variable 5.8 mph - N/A   Clear
9:56 AM 78.1 °F 15.1 °F 9% 29.82 in 10.0 mi SSW 17.3 mph 28.8 mph N/A   Clear
10:56 AM 80.1 °F 16.0 °F 9% 29.82 in 10.0 mi SSW 20.7 mph 31.1 mph N/A   Clear
11:56 AM 82.0 °F 19.0 °F 10% 29.81 in 10.0 mi SW 15.0 mph 35.7 mph N/A   Clear
12:56 PM 81.0 °F 17.1 °F 9% 29.80 in 10.0 mi WSW 16.1 mph 31.1 mph N/A   Clear
1:56 PM 82.0 °F 17.1 °F 9% 29.79 in 10.0 mi SSW 19.6 mph 27.6 mph N/A   Clear
2:56 PM 80.1 °F 17.1 °F 9% 29.80 in 10.0 mi SW 20.7 mph 26.5 mph N/A   Clear
3:56 PM 78.1 °F 15.1 °F 9% 29.81 in 10.0 mi WSW 25.3 mph 34.5 mph N/A   Clear
4:56 PM 75.9 °F 15.1 °F 10% 29.82 in 10.0 mi SW 20.7 mph 27.6 mph N/A   Clear
5:56 PM 73.9 °F 18.0 °F 12% 29.83 in 10.0 mi SSW 21.9 mph 27.6 mph N/A   Clear
6:56 PM 73.0 °F 19.9 °F 14% 29.83 in 10.0 mi SW 16.1 mph 24.2 mph N/A   Clear
7:56 PM 69.1 °F 21.0 °F 16% 29.82 in 10.0 mi SSW 8.1 mph - N/A   Clear
8:56 PM 66.0 °F 21.0 °F 18% 29.82 in 10.0 mi South 8.1 mph - N/A   Clear
9:56 PM 60.1 °F 19.9 °F 21% 29.83 in 10.0 mi SSW 9.2 mph - N/A   Clear
10:56 PM 57.9 °F 21.0 °F 24% 29.83 in 10.0 mi SW 3.5 mph - N/A   Clear
11:56 PM 57.0 °F 21.0 °F 25% 29.83 in 10.0 mi SW 4.6 mph - N/A   Clear